This demonstration page uses our WeatherBlox Daily Observations layout. Learn more.

Left ArrowRight Arrow

40.92945, -100.16068

Hourly Observations for January 18, 2021

Temp ( °F °C ) Dew Point ( °F °C ) Humidity (%) Winds ( mph kmh ) Pressure ( in mb ) Visibility ( mi km ) Precip ( " mm )
12:15 am 00:15 Mostly Cloudy 32 0 24 -4.5 72 72 ENE 3 6 29.91 1013 10 16.0934 0 0
12:35 am 00:35 Cloudy 32 0 23 -5.2 68 68 E 5 7 29.9 1012 10 16.0934 0 0
12:55 am 00:55 Cloudy 32 0 22 -5.7 66 66 E 5 7 29.9 1012 10 16.0934 0 0
1:15 am 01:15 Partly Cloudy 31 -0.3 22 -5.5 68 68 ENE 6 9 29.88 1012 10 16.0934 0 0
1:35 am 01:35 Mostly Cloudy 32 -0.1 23 -4.8 71 71 Calm 29.89 1012 10 16.0934 0 0
1:55 am 01:55 Cloudy 32 -0.1 24 -4.7 71 71 Calm 29.89 1012 10 16.0934 0 0
2:15 am 02:15 Cloudy 32 0 24 -4.3 73 73 Calm 29.89 1012 10 16.0934 0 0
2:35 am 02:35 Cloudy 32 0 25 -3.8 76 76 Calm 29.88 1012 10 16.0934 0 0
2:55 am 02:55 Cloudy 31 -0.5 25 -4 77 77 N 3 6 29.89 1012 10 16.0934 0 0
3:15 am 03:15 Mostly Cloudy 31 -0.4 26 -3.6 79 79 Calm 29.88 1012 10 16.0934 0 0
3:35 am 03:35 Partly Cloudy 31 -0.7 25 -3.7 80 80 Calm 29.88 1012 10 16.0934 0 0
3:55 am 03:55 Clear 30 -1 25 -4 80 80 Calm 29.9 1012 10 16.0934 0 0
4:15 am 04:15 Clear 31 -0.8 24 -4.7 75 75 WNW 6 9 29.89 1012 10 16.0934 0 0
4:35 am 04:35 Partly Cloudy 30 -0.9 24 -4.4 77 77 WNW 6 9 29.9 1012 10 16.0934 0 0
4:55 am 04:55 Partly Cloudy 30 -1 24 -4.6 77 77 W 8 13 29.91 1013 10 16.0934 0 0
5:15 am 05:15 Clear 31 -0.4 23 -5.2 70 70 WNW 8 13 29.9 1013 10 16.0934 0 0
5:35 am 05:35 Clear 32 -0.2 23 -5.2 69 69 WNW 9 15 29.92 1013 10 16.0934 0 0
5:55 am 05:55 Clear 32 -0.2 23 -4.9 71 71 WNW 9 15 29.93 1013 10 16.0934 0 0
6:15 am 06:15 Partly Cloudy 31 -0.5 24 -4.2 76 76 WNW 10 17 29.94 1014 10 16.0934 0 0
6:35 am 06:35 Partly Cloudy 31 -0.6 25 -4.1 77 77 WNW 8 13 29.95 1014 10 16.0934 0 0
6:55 am 06:55 Partly Cloudy 31 -0.3 25 -3.7 78 78 WNW 9 15 29.96 1015 10 16.0934 0 0
7:15 am 07:15 Mostly Cloudy 31 -0.7 26 -3.5 82 82 W 8 13 29.97 1015 10 16.0934 0 0
7:35 am 07:35 Mostly Cloudy 31 -0.8 26 -3.4 83 83 W 10 17 29.98 1015 10 16.0934 0 0
7:55 am 07:55 Mostly Cloudy 32 -0.2 27 -3 82 82 W 10 17 29.98 1015 10 16.0934 0 0
8:15 am 08:15 Partly Cloudy 30 -1 26 -3.1 86 86 WNW 10 17 30 1016 10 16.0934 0 0
8:35 am 08:35 Sunny 32 0.1 28 -2.3 84 84 WNW 14 22 30 1016 10 16.0934 0 0
8:55 am 08:55 Sunny 35 1.5 28 -2.5 75 75 NW 17 28 29.99 1016 10 16.0934 0 0
9:15 am 09:15 Partly Cloudy 35 1.6 28 -2.5 74 74 NW 12 19 30 1016 10 16.0934 0 0
9:35 am 09:35 Mostly Cloudy 36 2.4 28 -2.1 72 72 NW 14 22 29.99 1016 10 16.0934 0 0
9:55 am 09:55 Cloudy 37 2.8 28 -2.1 70 70 NNW 18 30 30.01 1016 10 16.0934 0 0
10:15 am 10:15 Cloudy 37 3 28 -2.1 69 69 NW 16 26 30.03 1017 10 16.0934 0 0
10:35 am 10:35 Cloudy 37 3 27 -2.6 67 67 NNW 24 39 30.04 1017 10 16.0934 0 0
10:55 am 10:55 Cloudy 38 3.5 28 -2.4 66 66 NNW 22 35 30.03 1017 10 16.0934 0 0
11:15 am 11:15 Cloudy 39 3.7 27 -2.6 64 64 NW 18 30 30.03 1017 10 16.0934 0 0
11:35 am 11:35 Cloudy 39 3.8 27 -2.7 63 63 NNW 20 31 30.04 1017 10 16.0934 0 0
11:55 am 11:55 Cloudy 39 4.1 27 -2.7 62 62 NNW 20 31 30.03 1017 10 16.0934 0 0
12:15 pm 12:15 Cloudy 40 4.6 28 -2.5 60 60 NW 18 30 30.01 1016 10 16.0934 0 0
12:35 pm 12:35 Mostly Cloudy 42 5.5 27 -2.7 56 56 N 18 30 30 1016 10 16.0934 0 0
12:55 pm 12:55 Mostly Cloudy 42 5.5 27 -2.8 55 55 N 16 26 30 1016 10 16.0934 0 0
1:15 pm 13:15 Mostly Cloudy 42 5.3 26 -3.2 55 55 NNW 17 28 30.01 1016 10 16.0934 0 0
1:35 pm 13:35 Mostly Cloudy 43 5.9 26 -3.5 51 51 NNW 16 26 30 1016 10 16.0934 0 0
1:55 pm 13:55 Mostly Cloudy 43 6.1 26 -3.4 51 51 NNW 12 19 30 1016 10 16.0934 0 0
2:15 pm 14:15 Mostly Cloudy 44 6.4 26 -3.6 49 49 NNW 15 24 29.99 1016 10 16.0934 0 0
2:35 pm 14:35 Partly Cloudy 45 7 26 -3.3 48 48 NNW 16 26 29.99 1016 10 16.0934 0 0
2:55 pm 14:55 Sunny 45 7 25 -3.8 46 46 NW 17 28 30 1016 10 16.0934 0 0
3:15 pm 15:15 Partly Cloudy 45 7.3 26 -3.6 46 46 NNW 14 22 30 1016 10 16.0934 0 0
3:35 pm 15:35 Cloudy 45 7.1 26 -3.6 47 47 NW 8 13 30 1016 10 16.0934 0 0
3:55 pm 15:55 Cloudy 45 7.2 26 -3.4 47 47 NW 8 13 30 1016 10 16.0934 0 0
4:15 pm 16:15 Cloudy 45 7 26 -3.4 48 48 WNW 6 9 30.01 1016 10 16.0934 0 0
4:35 pm 16:35 Cloudy with Light Rain 43 6.2 29 -1.5 58 58 W 15 24 30.03 1017 10 16.0934 0 0
4:55 pm 16:55 Cloudy 42 5.8 30 -1.3 61 61 W 6 9 30.03 1017 10 16.0934 0 0
5:15 pm 17:15 Cloudy 43 6 28 -2 57 57 W 9 15 30.04 1017 10 16.0934 0 0
5:35 pm 17:35 Mostly Cloudy 40 4.7 31 -0.8 68 68 N 21 33 30.08 1019 10 16.0934 0 0
5:55 pm 17:55 Mostly Cloudy 39 4 30 -1.2 69 69 NNW 13 20 30.1 1019 10 16.0934 0 0
6:15 pm 18:15 Cloudy 39 3.8 29 -1.7 68 68 NNW 10 17 30.11 1020 10 16.0934 0 0
6:35 pm 18:35 Cloudy 38 3.2 29 -1.6 71 71 NW 8 13 30.13 1020 10 16.0934 0 0
6:55 pm 18:55 Cloudy 37 2.8 29 -1.6 73 73 WNW 7 11 30.15 1021 10 16.0934 0 0
7:15 pm 19:15 Cloudy 36 2.2 29 -1.6 76 76 WNW 10 17 30.17 1022 10 16.0934 0 0
7:35 pm 19:35 Cloudy 37 2.8 28 -2.4 69 69 NW 17 28 30.18 1022 10 16.0934 0 0
7:55 pm 19:55 Mostly Cloudy 36 2.4 28 -2.3 71 71 NW 15 24 30.19 1022 10 16.0934 0 0
8:15 pm 20:15 Mostly Cloudy 36 2.2 28 -2.1 74 74 NNW 15 24 30.21 1023 10 16.0934 0 0
8:35 pm 20:35 Partly Cloudy 35 1.5 28 -2.3 76 76 NNW 14 22 30.22 1023 10 16.0934 0 0
8:55 pm 20:55 Mostly Cloudy 35 1.9 28 -2.5 73 73 NNW 16 26 30.23 1024 10 16.0934 0 0
9:15 pm 21:15 Cloudy 36 2 28 -2.1 75 75 NW 12 19 30.24 1024 10 16.0934 0 0
9:35 pm 21:35 Cloudy 36 2.1 27 -2.7 71 71 NNW 17 28 30.25 1024 10 16.0934 0 0
9:55 pm 21:55 Mostly Cloudy 34 1.1 26 -3.1 74 74 NW 14 22 30.27 1025 10 16.0934 0 0
10:15 pm 22:15 Clear 32 0.2 26 -3.2 78 78 NW 10 17 30.29 1026 10 16.0934 0 0
10:35 pm 22:35 Partly Cloudy 32 0 26 -3.2 79 79 NW 10 17 30.3 1026 10 16.0934 0 0
10:55 pm 22:55 Partly Cloudy 30 -0.9 26 -3.5 83 83 NW 9 15 30.32 1027 10 16.0934 0 0
11:15 pm 23:15 Mostly Cloudy 31 -0.3 26 -3.1 82 82 NW 10 17 30.32 1027 10 16.0934 0 0
11:35 pm 23:35 Cloudy 33 0.5 25 -3.7 74 74 NNW 16 26 30.32 1027 10 16.0934 0 0
11:55 pm 23:55 Cloudy 33 0.5 24 -4.5 69 69 NNW 10 17 30.33 1027 10 16.0934 0 0

Powered by AerisWeather